Location: Little Chesterford
(52.0500°N, 0.1833°E)
Time: 11:16:43
(UTC+00:00)

Cosmos 2369 Rocket - Pass Details

Date: 26 September 2023
Orbit: 828 x 852 km, 71.0° (Epoch: 28 November)

Event Time Altitude Azimuth Distance (km) Brightness Sun altitude
Rises 19:13:49 0° 327° (NNW) 3,382 6.2 -13.7°
Reaches altitude 10° 19:17:12 10° 347° (NNW) 2,446 5.0 -14.2°
Maximum altitude 19:20:46 17° 27° (NNE) 1,997 4.1 -14.8°
Enters shadow 19:23:48 12° 63° (ENE) 2,329 4.1 -15.2°
